User: anonymous   Login
Location: Brachbach
(49.1847°N, 9.7240°E)
Time: 20:52:50
(UTC+00:00)
Language:

MSX - Orbit

View from above orbital plane
View from above orbital plane
View from above satellite
View from above satellite

Ground track
Ground track

The orbit data is extracted from the following two-line orbital elements,

1 23851U 96024A   24205.53339984  .00000194  00000-0  16645-3 0  9996
2 23851  98.9703 144.1154 0007415 357.2670   2.8451 13.98246303441406
Epoch (UTC): 23 July 2024 12:48:05
Eccentricity: 0.0007415
inclination: 98.9703°
perigee height: 894 km
apogee height: 905 km
right ascension of ascending node: 144.1154°
argument of perigee: 357.2670°
revolutions per day: 13.98246303
mean anomaly at epoch: 2.8451°
orbit number at epoch: 44140

The dashed part of the orbit path shows where the satellite is in the earth's shadow,  

DLR